Campo, CA

9:58 AM PDT on May 21, 2018 (GMT -0700)
Campo

Weather History for KCZZ - December, 2011

Change the Weather History Date:

Friday, December 30, 2011

  Actual Average Record
Temperature  
Mean Temperature 56 °F 48 °F  
Max Temperature 74 °F 62 °F 78 °F (1998)
Min Temperature 37 °F 33 °F 14 °F (1969)
Degree Days  
Heating Degree Days 9 17  
Month to date heating degree days 625 522  
Since 1 July heating degree days 1257 1092  
Cooling Degree Days 0 0  
Month to date cooling degree days 0 0  
Year to date cooling degree days 733 841  
Growing Degree Days 6 (Base 50)    
Moisture  
Dew Point 32 °F    
Average Humidity 46    
Maximum Humidity 70    
Minimum Humidity 22    
Precipitation  
Precipitation 0.00 in 0.09 in 1.06 in (1951)
Month to date precipitation 1.49 2.18  
Year to date precipitation 12.99 15.64  
Since 1 July precipitation 5.24  
Snow  
Snow 0.00 in - - ()
Month to date snowfall 0.0  
Year to date snowfall 0.0  
Snow Depth 0.00 in    
Sea Level Pressure  
Sea Level Pressure 29.99 in    
Wind  
Wind Speed 6 mph (NE)    
Max Wind Speed 15 mph    
Max Gust Speed 16 mph    
T = Trace of Precipitation, MM = Missing Value Source: NWS Daily Summary

Daily Weather History Graph

Daily Weather History Graph

Search for Another Location

Airport or City:

Astronomy

Dec. 30, 2011 Rise Set
Actual Time 6:47 AM PST 4:49 PM PST
Civil Twilight 6:20 AM PST 5:16 PM PST
Nautical Twilight 5:49 AM PST 5:47 PM PST
Astronomical Twilight 5:19 AM PST 6:17 PM PST
Moon 10:30 AM PST (12/30) 11:05 PM PST (12/30)
Length of Visible Light 10h 56m
Length of Day
10h 02m
Waxing Crescent, 36% of the Moon is Illuminated
Dec 30
Waxing Crescent
Dec 31
First Quarter
Jan 8
Full
Jan 16
Last Quarter
Jan 22
New

Hourly Weather History & Observations

Time (PST) Temp. Windchill Dew Point Humidity Pressure Visibility Wind Dir Wind Speed Gust Speed Precip Events Conditions
12:52 AM 42.1 °F 37.7 °F 28.9 °F 60% 29.97 in - NNE 6.9 mph - N/A   Unknown
1:52 AM 45.0 °F 42.6 °F 28.9 °F 53% 29.97 in - NE 4.6 mph - N/A   Unknown
2:52 AM 39.0 °F 35.7 °F 28.0 °F 65% 29.99 in - NE 4.6 mph - N/A   Unknown
3:52 AM 41.0 °F 36.4 °F 28.0 °F 60% 29.99 in - NE 6.9 mph - N/A   Unknown
4:52 AM 42.1 °F 38.4 °F 28.0 °F 58% 29.99 in - NE 5.8 mph - N/A   Unknown
5:52 AM 43.0 °F 40.3 °F 28.9 °F 58% 30.01 in - NE 4.6 mph - N/A   Unknown
6:52 AM 39.0 °F 33.4 °F 28.9 °F 67% 30.04 in - NE 8.1 mph - N/A   Unknown
7:52 AM 46.0 °F 43.9 °F 32.0 °F 58% 30.05 in - ENE 4.6 mph - N/A   Unknown
8:52 AM 60.1 °F - 34.0 °F 38% 30.04 in - ENE 3.5 mph - N/A   Unknown
9:52 AM 66.9 °F - 33.1 °F 28% 30.03 in - Calm Calm - N/A   Unknown
10:52 AM 71.1 °F - 30.9 °F 23% 30.01 in - WSW 4.6 mph - N/A   Unknown
11:52 AM 73.0 °F - 34.0 °F 24% 29.98 in - SSW 8.1 mph - N/A   Unknown
12:52 PM 73.9 °F - 33.1 °F 22% 29.95 in - SSW 12.7 mph - N/A   Unknown
1:52 PM 73.9 °F - 34.0 °F 23% 29.93 in - SW 11.5 mph - N/A   Unknown
2:52 PM 73.0 °F - 32.0 °F 22% 29.93 in - SSW 10.4 mph - N/A   Unknown
3:52 PM 70.0 °F - 34.0 °F 27% 29.94 in - SSW 9.2 mph - N/A   Unknown
4:52 PM 64.0 °F - 39.0 °F 40% 29.96 in - WSW 4.6 mph - N/A   Unknown
5:52 PM 51.1 °F - 37.0 °F 59% 29.99 in - NNE 6.9 mph - N/A   Unknown
6:52 PM 48.0 °F - 36.0 °F 63% 30.00 in - ENE 8.1 mph - N/A   Unknown
7:52 PM 45.0 °F 41.8 °F 35.1 °F 68% 30.00 in - ENE 5.8 mph - N/A   Unknown
8:52 PM 42.1 °F 38.4 °F 35.1 °F 76% 29.98 in - NE 5.8 mph - N/A   Unknown
9:52 PM 43.0 °F 39.5 °F 34.0 °F 71% 29.99 in - NNE 5.8 mph - N/A   Unknown
10:52 PM 39.9 °F 33.9 °F 33.1 °F 77% 29.98 in - ENE 9.2 mph - N/A   Unknown
11:52 PM 39.0 °F 34.0 °F 30.9 °F 73% 29.99 in - ENE 6.9 mph - N/A   Unknown